Volk, WI

9:21 PM CST on November 20, 2017 (GMT -0600)
Volk

Weather History for KVOK - October, 2011

Change the Weather History Date:

Friday, October 7, 2011

  Actual Average Record
Temperature  
Mean Temperature 64 °F -  
Max Temperature 81 °F 59 °F 84 °F (2007)
Min Temperature 48 °F 42 °F 28 °F (2000)
Degree Days  
Heating Degree Days 1    
Growing Degree Days 14 (Base 50)    
Moisture  
Dew Point 51 °F    
Average Humidity 64    
Maximum Humidity 100    
Minimum Humidity 34    
Precipitation  
Precipitation 0.00 in - - ()
Sea Level Pressure  
Sea Level Pressure 30.13 in    
Wind  
Wind Speed 7 mph (South)    
Max Wind Speed 17 mph    
Max Gust Speed 25 mph    
Visibility 10 miles    
Events      
Averages and records for this station are not official NWS values.
T = Trace of Precipitation, MM = Missing Value Source: NWS Daily Summary

Daily Weather History Graph

Daily Weather History Graph

Search for Another Location

Airport or City:

Trip Planner

Search our weather history database for the weather conditions in past years. The results will help you decide how hot, cold, wet, or windy it might be!

Date:

Astronomy

Oct. 07, 2011 Rise Set
Actual Time 7:05 AM CDT 6:31 PM CDT
Civil Twilight 6:36 AM CDT 7:00 PM CDT
Nautical Twilight 6:03 AM CDT 7:33 PM CDT
Astronomical Twilight 5:29 AM CDT 8:07 PM CDT
Moon 4:21 PM CDT (10/7) 2:46 AM CDT (10/7)
Length of Visible Light 12h 23m
Length of Day
11h 26m
Waxing Gibbous, 83% of the Moon is Illuminated
Oct 7
Waxing Gibbous
Oct 11
Full
Oct 19
Last Quarter
Oct 26
New
Nov 2
First Quarter

Hourly Weather History & Observations

Time (CDT) Temp. Heat Index Dew Point Humidity Pressure Visibility Wind Dir Wind Speed Gust Speed Precip Events Conditions
12:55 AM 49.5 °F - 49.5 °F 100% 30.15 in 10.0 mi South 4.6 mph - N/A   Clear
1:55 AM 48.7 °F - 48.7 °F 100% 30.15 in 10.0 mi South 4.6 mph - N/A   Clear
2:55 AM 49.6 °F - 49.6 °F 100% 30.15 in 10.0 mi Calm Calm - N/A   Clear
3:55 AM 49.6 °F - 49.6 °F 100% 30.17 in 10.0 mi Calm Calm - N/A   Clear
4:55 AM 48.2 °F - 48.2 °F 100% 30.18 in 10.0 mi SW 3.5 mph - N/A   Clear
5:55 AM 48.2 °F - 48.2 °F 100% 30.18 in 10.0 mi Calm Calm - N/A   Clear
6:55 AM 48.2 °F - 48.2 °F 100% 30.19 in 10.0 mi SW 3.5 mph - N/A   Clear
7:55 AM 53.6 °F - 53.6 °F 100% 30.20 in 10.0 mi SSW 4.6 mph - N/A   Scattered Clouds
8:55 AM 62.8 °F - 58.1 °F 85% 30.20 in 10.0 mi SW 8.1 mph - N/A   Partly Cloudy
9:55 AM 68.0 °F - 56.1 °F 66% 30.18 in 10.0 mi SW 9.2 mph - N/A   Partly Cloudy
10:55 AM 71.6 °F - 55.4 °F 57% 30.17 in 10.0 mi South 10.4 mph 18.4 mph N/A   Mostly Cloudy
11:55 AM 75.2 °F - 55.4 °F 50% 30.14 in 10.0 mi SSE 16.1 mph 25.3 mph N/A   Mostly Cloudy
12:55 PM 78.8 °F - 53.6 °F 42% 30.12 in 10.0 mi SSE 17.3 mph - N/A   Mostly Cloudy
1:55 PM 80.6 °F 80.3 °F 53.6 °F 39% 30.11 in 10.0 mi South 16.1 mph 19.6 mph N/A   Clear
2:55 PM 80.6 °F - 50.0 °F 34% 30.10 in 10.0 mi South 16.1 mph 25.3 mph N/A   Scattered Clouds
3:55 PM 80.4 °F - 50.2 °F 35% 30.09 in 10.0 mi South 17.3 mph 24.2 mph N/A   Clear
4:55 PM 79.7 °F - 50.4 °F 36% 30.09 in 10.0 mi SSE 12.7 mph 21.9 mph N/A   Clear
5:55 PM 76.5 °F - 52.5 °F 43% 30.08 in 10.0 mi SSE 11.5 mph - N/A   Clear
6:55 PM 72.9 °F - 50.7 °F 46% 30.07 in 10.0 mi SSE 11.5 mph - N/A   Clear
7:55 PM 72.5 °F - 48.4 °F 42% 30.07 in 10.0 mi SE 11.5 mph 20.7 mph N/A   Clear
8:55 PM 72.0 °F - 47.3 °F 41% 30.08 in 10.0 mi SSE 9.2 mph - N/A   Clear
9:55 PM 72.7 °F - 46.2 °F 39% 30.08 in 10.0 mi SSE 13.8 mph - N/A   Clear
10:55 PM 71.2 °F - 46.6 °F 41% 30.09 in 10.0 mi SSE 9.2 mph - N/A   Clear
11:55 PM 70.5 °F - 47.8 °F 44% 30.09 in 10.0 mi South 10.4 mph - N/A   Clear